FW6260 Weather Reports


Display with metric or nautical units.
time (UTC)temp
F
wind
direction
speed
MPH
gust
MPH
rain 1hr
in
rain 24hr
in
rain mn
in
humidity
%
barometer
mb
20260831023057 58 243 1.0 11.0 0.00 0.00 0.00 97
20260831020027 58 134 0.0 3.0 0.00 0.00 0.00 97
20260831013058 58 131 1.0 3.0 0.00 0.00 0.00 97
20260831010028 58 143 1.0 4.0 0.00 0.00 0.00 96
20260831003059 58 146 0.0 3.0 0.00 0.00 0.00 96
20260831000029 59 139 1.0 3.0 0.00 0.00 0.00 96
20260830233120 60 141 1.0 3.0 0.00 0.00 0.00 95
20260830230030 60 147 0.0 3.0 0.00 0.00 0.00 94
20260830223101 60 141 0.0 2.0 0.00 0.00 0.00 94
20260830220031 61 148 0.0 2.0 0.00 0.00 0.00 93
20260830213102 61 118 0.0 1.0 0.00 0.00 0.00 93
20260830210032 62 129 0.0 1.0 0.00 0.00 0.00 91
20260830203103 62 0.0 0.0 0.00 0.00 0.00 90
20260830200033 64 0.0 0.0 0.00 0.00 0.00 87
20260830193104 66 0.0 0.0 0.00 0.00 0.00 83
20260830190035 68 0.0 1.0 0.00 0.00 0.00 79
20260830183105 70 163 0.0 1.0 0.00 0.00 0.00 74
20260830180036 71 138 0.0 2.0 0.00 0.00 0.00 72
20260830173112 74 173 0.0 3.0 0.00 0.00 0.00 67
20260830170116 76 218 1.0 3.0 0.00 0.00 0.00 63
20260830163107 76 172 1.0 6.0 0.00 0.00 0.00 61
20260830160037 76 226 2.0 4.0 0.00 0.00 0.00 61
20260830153108 78 210 2.0 6.0 0.00 0.00 0.00 59
20260830150058 78 245 2.0 7.0 0.00 0.00 0.00 58
20260830143109 79 246 2.0 8.0 0.00 0.00 0.00 56
20260830140039 78 209 2.0 8.0 0.00 0.00 0.00 57
20260830133111 78 238 2.0 10.0 0.00 0.00 0.00 58
20260830130039 78 215 2.0 9.0 0.00 0.00 0.00 58
20260830123110 76 234 2.0 9.0 0.00 0.00 0.00 59
20260830120040 76 229 2.0 8.0 0.00 0.00 0.00 59
20260830113110 76 170 2.0 8.0 0.00 0.00 0.00 59
20260830110040 75 200 2.0 8.0 0.00 0.00 0.00 60
20260830103231 74 214 2.0 8.0 0.00 0.00 0.00 60
20260830093133 74 242 2.0 10.0 0.00 0.00 0.00 61
20260830090041 72 171 2.0 11.0 0.00 0.00 0.00 64
20260830083113 72 167 2.0 10.0 0.00 0.00 0.00 66
20260830080042 71 170 2.0 7.0 0.00 0.00 0.00 67
20260830073113 71 173 1.0 4.0 0.00 0.00 0.00 69
20260830070042 68 160 1.0 7.0 0.00 0.00 0.00 76
20260830063113 65 151 1.0 3.0 0.00 0.00 0.00 80
20260830060043 65 138 1.0 7.0 0.00 0.00 0.00 78
20260830053114 63 148 0.0 3.0 0.00 0.00 0.00 83
20260830050044 63 135 0.0 4.0 0.00 0.00 0.00 83
20260830043116 62 151 1.0 3.0 0.00 0.00 0.00 86
20260830040106 61 156 1.0 4.0 0.00 0.00 0.00 86
20260830033015 61 147 1.0 3.0 0.00 0.00 0.00 87
20260830030047 60 118 1.0 4.0 0.00 0.00 0.00 88